Regional Weather Roundup
Issued by NWS

Home | Current Version | Previous Version | Graphics & Text | Print | Product List | Glossary On
Versions: 1 2 3 4 5 6 7 8 9 10 11 12 13 14 15 16 17 18 19 20 21 22 23 24 25 26 27 28 29 30 31 32 33 34 35 36 37 38 39 40 41 42 43 44 45 46 47 48 49 50
722
ASUS44 KLIX 020410
RWRLA
LOUISIANA WEATHER ROUNDUP
NATIONAL WEATHER SERVICE NEW ORLEANS LA
1100 PM CDT WED OCT 01 2014

NOTE: "FAIR" INDICATES FEW OR NO CLOUDS BELOW 12,000 FEET WITH NO
      SIGNIFICANT WEATHER AND/OR OBSTRUCTIONS TO VISIBILITY.
      SKY/WX - SKY CONDITION AND SIGNIFICANT WEATHER.
      TMP - AIR TEMPERATURE.    DP   - DEWPOINT TEMPERATURE.
      RH  - RELATIVE HUMIDITY.  PRES - PRESSURE.
      HX  - HEAT INDEX.         WCI  - WIND CHILL INDEX.

*  THESE STATIONS ARE NOT NWS OR FAA STATIONS AND ARE NOT UNDER
   NWS QUALITY CONTROL.

LAZ040-048-061>063-065-066-069-020500-
SOUTHEAST LOUISIANA

CITY           SKY/WX    TMP DP  RH WIND       PRES   REMARKS
N.O. AUDUBON     N/A     78  78  98 MISG        N/A
N.O. INTL ARPT PTCLDY    79  75  87 SE8       29.94S
N.O. LAKEFRONT CLEAR     78  75  90 SE9       29.95S
N.O. DOWNTOWN* MOCLDY    79  72  78 CALM      29.95S
SLIDELL        PTCLDY    78  74  87 SE6       29.95R
BATON ROUGE    PTCLDY    77  74  90 SE6       29.93S
BOOTHVILLE     PTCLDY    78  76  93 E3        29.96S
BELLE CHASSE   MOCLDY    79  75  87 SE6       29.95S
BOGALUSA*      FAIR      77  72  83 CALM      29.97R
GALLIANO*      NOT AVBL
NEW ROADS*     FAIR      76  75  95 SE5       29.92S
GONZALES*      FAIR      77  77 100 CALM      29.93S
HAMMOND*       CLOUDY    77  73  88 SE5       29.96R
HOUMA*         PTCLDY   N/A N/A N/A SE3       29.94S
PORT FOURCHON* CLEAR     81  75  83 SE6       29.98S

$$

LAZ041-044-053-054-020500-
SOUTHWEST LOUISIANA

CITY           SKY/WX    TMP DP  RH WIND       PRES   REMARKS
LAKE CHARLES   CLEAR     78  77  96 S7        29.88S
LAFAYETTE      CLOUDY    77  75  93 CALM      29.91S
PATTERSON      PTCLDY    77  75  94 SE6       29.95S
SALT POINT       N/A     82  78  88 SE3       29.92R
NEW IBERIA     MOCLDY    78  76  93 SE6       29.92S
CHENAULT AIRPK PTCLDY    78  76  95 S8        29.89S

$$

LAZ027-028-020500-
CENTRAL LOUISIANA

CITY           SKY/WX    TMP DP  RH WIND       PRES   REMARKS
FORT POLK      PTCLDY    77  75  93 S6        29.89R
ALEXANDRIA INT MOCLDY    77  75  93 SE8       29.88R
ALEXANDRIA     MOCLDY    76  73  91 SE6       29.90S

$$

LAZ001-002-020500-
NORTHWEST LOUISIANA

CITY           SKY/WX    TMP DP  RH WIND       PRES   REMARKS
SHREVEPORT     CLEAR     77  73  87 S7        29.85S
BARKSDALE AFB  CLEAR     74  72  92 SE7       29.85S
DTN SHREVEPORT CLEAR     76  71  85 SE6       29.85S

$$

LAZ014-016-020500-
NORTHEAST LOUISIANA

CITY           SKY/WX    TMP DP  RH WIND       PRES   REMARKS
MONROE         CLEAR     77  72  84 S6        29.90S
TALLULAH       CLEAR     78  71  79 S8        29.91S

$$




USA.gov is the U.S. government's official web portal to all federal, state and local government web resources and services.